Marshall, TX

12:31 AM CST on December 06, 2019 (GMT -0600)
Harrison County

Weather History for KASL - October, 2019

Change the Weather History Date:

Wednesday, October 30, 2019

  Actual Average (KGGG) Record (KGGG)
Temperature  
Mean Temperature 53 °F 62 °F  
Max Temperature 64 °F 74 °F 91 °F (1934)
Min Temperature 42 °F 50 °F 29 °F (1910)
Degree Days  
Heating Degree Days 12 5  
Month to date heating degree days 78  
Since 1 July heating degree days 84  
Cooling Degree Days 0 2  
Month to date cooling degree days 113  
Year to date cooling degree days 2392  
Growing Degree Days 3 (Base 50)    
Moisture  
Dew Point 53 °F    
Average Humidity 93    
Maximum Humidity 95    
Minimum Humidity 89    
Precipitation  
Precipitation 1.79 in 0.12 in 2.83 in (1991)
Month to date precipitation 4.46  
Year to date precipitation 38.45  
Snow  
Snow 0.00 in - - ()
Month to date snowfall  
Since 1 July snowfall  
Since 1 September snowfall  
Snow Depth -    
Sea Level Pressure  
Sea Level Pressure 30.00 in    
Wind  
Wind Speed 4 mph (NW)    
Max Wind Speed 18 mph    
Max Gust Speed 25 mph    
Visibility 7 miles    
Events      
T = Trace of Precipitation, MM = Missing Value Source: NWS Daily Summary

Daily Weather History Graph

Daily Weather History Graph

Search for Another Location

Airport or City:

Astronomy

Oct. 30, 2019 Rise Set
Actual Time 7:32 AM CDT 6:28 PM CDT
Civil Twilight 7:07 AM CDT 6:53 PM CDT
Nautical Twilight 6:38 AM CDT 7:22 PM CDT
Astronomical Twilight 6:09 AM CDT 7:51 PM CDT
Moon 10:10 AM CDT (10/30) 8:44 PM CDT (10/30)
Length of Visible Light 11h 46m
Length of Day
10h 55m
Waxing Crescent, 9% of the Moon is Illuminated
Oct 30
Waxing Crescent
Nov 4
First Quarter
Nov 12
Full
Nov 19
Last Quarter
Nov 26
New

Hourly Weather History & Observations

Time (CDT) Temp. Windchill Dew Point Humidity Pressure Visibility Wind Dir Wind Speed Gust Speed Precip Events Conditions
12:15 AM 62.6 °F - 60.4 °F 93% 29.96 in 7.0 mi Calm Calm - N/A   Overcast
12:35 AM 62.6 °F - 60.4 °F 93% 29.96 in 10.0 mi Calm Calm - N/A   Overcast
12:55 AM 62.6 °F - 60.4 °F 93% 29.95 in 10.0 mi Calm Calm - N/A   Overcast
1:15 AM 62.6 °F - 60.4 °F 93% 29.95 in 7.0 mi Calm Calm - N/A   Overcast
1:35 AM 62.6 °F - 60.4 °F 93% 29.95 in 7.0 mi Calm Calm - N/A   Overcast
1:55 AM 62.6 °F - 60.4 °F 93% 29.94 in 4.0 mi Calm Calm - N/A   Overcast
2:15 AM 62.6 °F - 60.4 °F 93% 29.94 in 1.5 mi Calm Calm - N/A   Overcast
2:35 AM 62.6 °F - 60.8 °F 94% 29.94 in 1.5 mi SE 3.5 mph - 0.01 in   Overcast
2:55 AM 62.6 °F - 60.8 °F 94% 29.93 in 1.5 mi NW 3.5 mph - 0.10 in   Overcast
3:15 AM 62.6 °F - 60.8 °F 94% 29.93 in 1.5 mi North 6.9 mph - 0.31 in   Overcast
3:35 AM 62.6 °F - 60.8 °F 94% 29.95 in 5.0 mi NNW 8.1 mph - 0.42 in   Overcast
3:55 AM 62.6 °F - 60.8 °F 94% 29.93 in 2.5 mi NNE 3.5 mph - 0.44 in   Overcast
4:15 AM 61.3 °F - 59.7 °F 94% 29.94 in 3.0 mi NNE 3.5 mph - 0.01 in   Overcast
4:35 AM 61.2 °F - 59.4 °F 94% 29.93 in 1.8 mi East 3.5 mph - 0.02 in   Overcast
4:55 AM 60.8 °F - 59.4 °F 95% 29.93 in 5.0 mi Calm Calm - 0.03 in   Overcast
5:15 AM 60.3 °F - 58.6 °F 94% 29.94 in 10.0 mi Calm Calm - N/A   Overcast
5:35 AM 60.3 °F - 58.6 °F 94% 29.94 in 3.0 mi Calm Calm - N/A   Overcast
5:55 AM 59.9 °F - 58.3 °F 94% 29.93 in 2.5 mi Calm Calm - 0.01 in   Overcast
6:15 AM 59.9 °F - 58.3 °F 94% 29.93 in 10.0 mi Calm Calm - N/A   Overcast
6:35 AM 60.6 °F - 59.0 °F 94% 29.93 in 10.0 mi Calm Calm - N/A   Overcast
6:55 AM 60.1 °F - 58.5 °F 94% 29.93 in 10.0 mi Calm Calm - N/A   Overcast
7:15 AM 60.4 °F - 58.8 °F 94% 29.94 in 10.0 mi Calm Calm - N/A   Overcast
7:55 AM 61.0 °F - 59.4 °F 94% 29.94 in 5.0 mi Calm Calm - N/A   Overcast
8:15 AM 61.9 °F - 60.3 °F 94% 29.95 in 4.0 mi Calm Calm - N/A   Overcast
8:35 AM 62.6 °F - 60.8 °F 94% 29.94 in 1.5 mi Calm Calm - N/A   Overcast
8:55 AM 62.6 °F - 60.8 °F 94% 29.94 in 2.5 mi Calm Calm - N/A   Overcast
9:15 AM 62.6 °F - 60.8 °F 94% 29.95 in 5.0 mi SSE 3.5 mph - N/A   Overcast
9:35 AM 62.6 °F - 60.8 °F 94% 29.95 in 7.0 mi South 3.5 mph - N/A   Overcast
9:55 AM 62.6 °F - 60.8 °F 94% 29.95 in 10.0 mi SW 3.5 mph - N/A   Overcast
10:15 AM 62.6 °F - 60.8 °F 94% 29.95 in 7.0 mi Calm Calm - N/A   Overcast
10:35 AM 62.6 °F - 60.8 °F 94% 29.95 in 1.5 mi Calm Calm - N/A   Overcast
10:55 AM 63.7 °F - 62.1 °F 94% 29.95 in 0.8 mi Calm Calm - N/A   Overcast
11:15 AM 64.9 °F - 63.5 °F 95% 29.96 in 0.8 mi West 5.8 mph - N/A   Overcast
11:35 AM 55.6 °F - 53.8 °F 94% 29.98 in 1.0 mi WNW 11.5 mph - N/A   Overcast
11:55 AM 52.7 °F - 50.9 °F 94% 29.99 in 0.8 mi NNW 11.5 mph - 0.16 in   Overcast
12:15 PM 52.7 °F - 50.9 °F 94% 29.99 in 10.0 mi NW 9.2 mph - 0.03 in   Overcast
12:35 PM 52.7 °F - 50.9 °F 94% 29.97 in 10.0 mi NNW 8.1 mph - 0.03 in   Overcast
12:55 PM 52.7 °F - 50.9 °F 94% 29.98 in 10.0 mi NW 10.4 mph - 0.03 in   Overcast
1:15 PM 52.7 °F - 50.5 °F 92% 29.97 in 10.0 mi NW 6.9 mph - N/A   Overcast
1:35 PM 52.7 °F - 50.5 °F 92% 29.97 in 10.0 mi WNW 8.1 mph - N/A   Overcast
1:55 PM 53.6 °F - 51.4 °F 92% 29.97 in 10.0 mi WNW 5.8 mph - N/A   Overcast
2:15 PM 54.9 °F - 52.5 °F 92% 29.96 in 10.0 mi West 6.9 mph - N/A   Overcast
2:35 PM 52.7 °F - 50.2 °F 91% 29.96 in 10.0 mi NW 8.1 mph - N/A   Overcast
2:55 PM 53.1 °F - 50.9 °F 92% 29.96 in 7.0 mi NW 8.1 mph - 0.01 in   Overcast
3:15 PM 52.7 °F - 50.4 °F 92% 29.96 in 10.0 mi NW 9.2 mph - 0.01 in   Overcast
3:35 PM 52.7 °F - 50.4 °F 92% 29.96 in 10.0 mi WNW 9.2 mph - 0.01 in   Overcast
3:55 PM 52.7 °F - 50.4 °F 92% 29.97 in 10.0 mi NW 9.2 mph - 0.01 in   Overcast
4:15 PM 50.5 °F - 48.4 °F 92% 29.98 in 10.0 mi NW 12.7 mph - N/A   Overcast
4:35 PM 50.0 °F - 47.8 °F 92% 29.97 in 1.0 mi NW 15.0 mph 20.7 mph 0.12 in   Overcast
4:55 PM 50.0 °F - 48.2 °F 94% 30.03 in 0.2 mi West 9.2 mph 19.6 mph 0.50 in   Overcast
5:15 PM 47.5 °F - 45.5 °F 93% 29.99 in 2.0 mi NNW 3.5 mph - 0.10 in   Overcast
5:55 PM 47.1 °F - 45.0 °F 92% 30.02 in 5.0 mi NW 11.5 mph - 0.13 in   Overcast
6:15 PM 45.9 °F 39.4 °F 43.7 °F 92% 30.04 in 10.0 mi NW 15.0 mph 18.4 mph 0.01 in   Overcast
6:55 PM 45.0 °F 38.5 °F 43.0 °F 93% 30.05 in 3.0 mi NW 13.8 mph 20.7 mph 0.20 in   Overcast
7:35 PM 45.0 °F 38.9 °F 43.0 °F 93% 30.07 in 4.0 mi NW 12.7 mph 20.7 mph 0.08 in   Overcast
7:55 PM 45.0 °F 37.9 °F 43.0 °F 93% 30.09 in 10.0 mi NW 16.1 mph 23.0 mph 0.08 in   Overcast
8:15 PM 45.0 °F 38.5 °F 43.0 °F 93% 30.08 in 3.0 mi NW 13.8 mph 21.9 mph 0.04 in   Overcast
8:35 PM 45.0 °F 37.4 °F 43.0 °F 93% 30.11 in 10.0 mi NW 18.4 mph 25.3 mph 0.05 in   Overcast
8:55 PM 45.0 °F 38.5 °F 43.0 °F 93% 30.10 in 10.0 mi NNW 13.8 mph 19.6 mph 0.07 in   Overcast
9:15 PM 44.1 °F 36.8 °F 41.9 °F 92% 30.13 in 10.0 mi NW 16.1 mph 20.7 mph 0.01 in   Overcast
9:35 PM 42.4 °F 35.3 °F 40.3 °F 92% 30.13 in 10.0 mi NNW 13.8 mph 20.7 mph 0.01 in   Overcast
9:55 PM 42.4 °F 35.3 °F 40.1 °F 91% 30.15 in 10.0 mi NW 13.8 mph 24.2 mph 0.01 in   Overcast
10:15 PM 42.4 °F 35.7 °F 40.1 °F 91% 30.17 in 10.0 mi NW 12.7 mph 18.4 mph 0.01 in   Overcast
10:35 PM 42.4 °F 36.1 °F 40.1 °F 91% 30.18 in 10.0 mi NW 11.5 mph - 0.01 in   Overcast
10:55 PM 42.4 °F 36.5 °F 40.1 °F 91% 30.18 in 10.0 mi NW 10.4 mph 18.4 mph 0.01 in   Overcast
11:15 PM 42.4 °F 36.1 °F 40.1 °F 91% 30.18 in 10.0 mi NNW 11.5 mph 23.0 mph N/A   Overcast
11:35 PM 42.4 °F 34.7 °F 40.1 °F 91% 30.19 in 10.0 mi NW 16.1 mph 20.7 mph N/A   Overcast
11:55 PM 42.1 °F 34.2 °F 39.0 °F 89% 30.19 in 10.0 mi NNW 16.1 mph 24.2 mph N/A   Overcast